User: anonymous   Login
Location: Pic du Midi - T1M
(42.9366°N, 0.1426°E)
Time: 12:33:57
(UTC+01:00)
Language:

ITAMSAT 1 - Orbit

View from above orbital plane
View from above orbital plane
View from above satellite
View from above satellite

Ground track
Ground track

The orbit data is extracted from the following two-line orbital elements,

1 22826U 93061D   21264.03657409  .00000010  00000-0  21510-4 0  9992
2 22826  98.9095 283.8845 0010055 102.5284 257.7023 14.30465023460142
Epoch (UTC): 21 September 2021 00:52:40
Eccentricity: 0.0010055
inclination: 98.9095°
perigee height: 783 km
apogee height: 797 km
right ascension of ascending node: 283.8845°
argument of perigee: 102.5284°
revolutions per day: 14.30465023
mean anomaly at epoch: 257.7023°
orbit number at epoch: 46014

The dashed part of the orbit path shows where the satellite is in the earth's shadow,  

DLR